Temp
7 8 8 9 9 10 9 10 9 12 12 11 8 10 12 15 16 16 15 15 15 15 14 14 13 14 14 13 14 15 13 12 13 15 14 14 14 14 13 13 13 9 11 14
7 8 8 9 9 10 10 11 11 11 12 9 9 11 13 15 15 15 16 15 15 13 13 14 13 12 12 13 13 13 12 12 13 14 15 14 14 13 11 10 9 11 12 14
7 8 8 9 10 10 10 12 9 11 11 12 11 12 13 15 15 15 15 13 13 13 13 11 12 12 12 13 12 12 12 11 13 14 14 12 13 12 11 12 11 11 12 13
6 8 9 9 10 10 11 12 9 12 8 9 10 13 13 14 15 15 15 14 14 13 12 12 11 12 12 12 12 10 12 13 11 10 9 11 12 12 11 12 12 13 13 12
7 8 9 9 10 10 11 12 10 10 9 12 11 11 12 14 14 14 15 14 13 13 12 13 12 12 11 12 11 10 9 10 10 10 8 8 11 11 11 10 10 11 10 11
7 8 9 9 10 10 11 12 14 15 6 8 10 10 11 13 13 12 12 13 12 13 12 11 10 11 10 11 11 9 9 8 9 10 7 8 10 11 11 10 10 12 12 13
8 8 8 9 10 10 12 14 15 14 6 7 9 11 12 12 13 12 11 13 12 10 12 12 12 10 8 8 7 8 7 6 5 8 5 10 13 10 10 11 10 10 10 9
8 8 9 10 10 11 13 14 15 15 3 8 10 10 9 10 11 9 10 10 11 12 12 8 10 8 8 7 6 6 6 5 5 8 8 10 12 9 10 10 12 10 11 8
8 8 9 10 11 11 12 14 15 15 8 7 12 10 10 9 8 8 8 9 10 11 5 6 8 10 11 10 9 6 6 5 8 4 9 10 11 10 10 10 11 9 9 6
8 9 10 11 11 11 13 14 14 15 12 10 11 10 10 11 9 7 8 10 10 10 4 5 7 9 9 10 8 5 6 4 7 2 8 8 9 9 10 11 12 8 9 8
9 10 11 11 11 11 13 14 14 14 11 9 11 12 12 11 12 8 9 10 9 5 6 6 6 6 7 8 8 7 8 6 5 2 6 9 8 9 10 11 10 11 10 11
10 10 11 11 12 12 12 13 13 12 11 9 9 11 12 13 13 13 10 12 9 10 5 3 2 4 3 5 9 6 8 8 8 8 9 9 9 9 11 10 10 10 10 10
9 10 11 11 11 11 12 13 13 10 8 8 10 9 10 12 13 14 12 10 12 11 11 4 3 6 4 6 6 7 7 6 7 7 9 7 9 11 10 10 9 9 9 9
10 10 11 11 11 11 13 13 11 10 11 6 8 9 10 11 12 13 14 15 13 12 11 6 2 5 3 4 6 7 7 6 7 7 7 8 10 10 11 10 9 8 8 7
11 11 11 11 12 12 13 13 12 12 13 5 8 9 8 10 12 13 14 14 14 12 8 2 4 3 3 2 3 4 6 7 7 7 9 9 9 9 9 9 7 6 6 5
11 11 11 11 12 13 14 13 12 14 13 12 4 7 7 8 10 11 11 12 12 11 9 2 3 5 5 4 5 7 7 7 7 8 7 8 7 7 7 6 5 4 4 3
10 10 10 11 11 13 13 13 13 13 14 13 3 4 7 8 9 9 9 9 9 9 4 2 3 3 4 2 5 5 6 6 6 6 7 6 5 4 4 4 3 3 2 1
10 10 10 11 12 12 11 11 12 13 14 13 2 2 6 7 6 5 7 8 7 4 3 3 2 3 3 4 4 4 5 5 5 5 5 5 3 3 2 2 2 1 -1 -1
9 9 10 11 12 11 9 10 11 12 13 8 4 4 4 4 3 3 4 5 2 3 2 3 3 2 4 2 2 3 4 3 3 3 3 2 2 0 0 0 0 -0 -1 1
9 10 11 9 8 10 10 11 11 11 9 8 -0 1 2 3 3 2 2 2 1 3 2 2 2 3 1 1 1 2 4 3 2 2 -1 -0 -0 -0 -0 -0 1 1 1 0
9 9 7 7 9 9 9 6 3 3 2 2 1 2 2 2 3 1 1 1 0 3 2 3 3 3 0 0 1 1 2 2 2 2 -0 -1 -0 0 1 1 0 0 0 0
8 8 8 8 7 7 3 1 1 2 3 2 2 2 2 1 3 1 1 0 1 3 1 3 3 1 -1 -0 -0 -0 0 0 0 1 1 1 1 1 0 0 0 -0 -0 -1
8 8 7 7 4 3 2 3 3 2 1 2 2 1 2 2 1 1 2 3 3 1 2 3 2 -1 -0 -0 -0 0 1 1 1 1 1 1 1 0 0 -0 -1 -1 -1 -1
7 5 3 1 3 2 2 1 1 0 1 2 2 1 1 1 2 0 3 1 1 3 3 3 -0 -1 -1 -1 0 1 0 0 0 0 -0 -0 -0 -1 -1 -1 -2 -2 -2 -2
3 3 1 -0 -2 -1 -1 -0 0 0 1 2 2 1 2 0 1 0 1 2 2 1 1 0 -0 -1 -1 -1 -0 -0 -0 -1 -1 -1 -1 -1 -2 -2 -2 -2 -3 -3 -2 -2
-0 -1 -1 -1 -1 -1 -1 -1 -1 0 1 1 2 0 1 0 0 0 1 2 1 -1 -0 -1 -1 -1 -1 -0 -1 -1 -1 -1 -1 -2 -2 -2 -2 -2 -3 -3 -2 -2 -3 -3
-1 -2 -1 -1 -1 -1 -1 -1 -1 -0 0 -0 -1 0 -0 -1 -1 -1 -1 -1 -2 -1 -1 -1 -1 -1 -1 -1 -1 -2 -2 -2 -2 -2 -3 -3 -3 -3 -3 -2 -3 -3 -4 -4
Height
1405 1416 1424 1433 1440 1447 1457 1460 1464 1466 1472 1479 1478 1483 1478 1474 1476 1477 1479 1480 1484 1489 1494 1500 1502 1503 1502 1503 1504 1506 1510 1518 1526 1522 1519 1520 1519 1522 1526 1535 1542 1553 1548 1530
1398 1410 1417 1426 1434 1440 1451 1454 1460 1463 1469 1477 1478 1476 1474 1473 1475 1476 1477 1479 1480 1487 1494 1501 1502 1503 1503 1502 1504 1507 1509 1521 1530 1526 1522 1519 1519 1523 1528 1535 1541 1542 1543 1526
1393 1404 1412 1421 1428 1439 1449 1454 1457 1461 1467 1467 1468 1473 1474 1473 1473 1474 1475 1479 1481 1487 1495 1497 1502 1503 1503 1503 1504 1505 1506 1517 1516 1519 1516 1519 1521 1522 1526 1525 1535 1535 1530 1521
1388 1398 1407 1415 1425 1435 1443 1444 1446 1449 1464 1465 1465 1467 1471 1472 1475 1473 1474 1478 1479 1484 1496 1499 1502 1501 1503 1504 1505 1506 1507 1514 1519 1523 1524 1521 1519 1520 1524 1523 1522 1523 1518 1520
1382 1393 1401 1410 1421 1431 1438 1437 1440 1448 1455 1459 1463 1467 1470 1470 1474 1474 1474 1477 1481 1481 1488 1487 1496 1496 1500 1500 1506 1507 1510 1518 1520 1523 1526 1526 1521 1519 1521 1522 1521 1519 1520 1515
1379 1389 1397 1406 1416 1426 1432 1434 1436 1442 1456 1459 1463 1466 1467 1467 1469 1475 1475 1475 1479 1484 1486 1485 1487 1491 1493 1496 1501 1508 1512 1518 1522 1525 1531 1528 1526 1511 1510 1511 1510 1507 1513 1502
1376 1386 1394 1403 1413 1422 1430 1431 1436 1439 1458 1457 1458 1461 1464 1465 1467 1472 1476 1476 1478 1487 1487 1489 1493 1495 1499 1501 1506 1507 1515 1521 1531 1528 1537 1528 1501 1502 1504 1504 1503 1503 1503 1504
1375 1383 1392 1401 1411 1422 1427 1430 1434 1436 1454 1452 1456 1459 1463 1466 1467 1471 1476 1478 1481 1485 1486 1495 1502 1508 1506 1511 1512 1511 1510 1519 1534 1527 1527 1515 1497 1502 1503 1503 1495 1494 1497 1502
1374 1382 1390 1399 1409 1420 1426 1429 1432 1435 1440 1450 1449 1456 1459 1465 1469 1474 1479 1481 1485 1486 1490 1499 1509 1510 1505 1510 1511 1514 1514 1515 1518 1539 1525 1522 1500 1498 1498 1499 1501 1491 1494 1499
1374 1381 1389 1398 1408 1418 1424 1427 1431 1434 1437 1444 1447 1451 1456 1459 1464 1473 1478 1483 1486 1486 1495 1508 1508 1505 1506 1507 1513 1522 1520 1526 1523 1543 1523 1513 1497 1498 1499 1506 1500 1490 1492 1495
1373 1380 1387 1397 1407 1416 1422 1426 1429 1433 1437 1443 1446 1447 1450 1455 1458 1466 1475 1483 1485 1487 1496 1502 1506 1507 1506 1507 1507 1510 1510 1519 1526 1540 1529 1514 1495 1498 1501 1493 1490 1490 1490 1491
1372 1379 1388 1396 1405 1414 1421 1425 1428 1431 1436 1443 1445 1446 1449 1452 1454 1457 1467 1469 1472 1475 1488 1500 1505 1507 1511 1509 1503 1508 1509 1502 1505 1508 1500 1492 1492 1490 1489 1490 1490 1490 1491 1491
1375 1382 1389 1397 1406 1415 1422 1425 1428 1434 1438 1445 1447 1448 1451 1452 1453 1455 1460 1467 1468 1471 1473 1483 1493 1497 1502 1504 1504 1502 1499 1500 1501 1502 1489 1489 1489 1489 1488 1489 1489 1489 1489 1489
1378 1384 1390 1398 1406 1414 1421 1426 1431 1434 1434 1440 1451 1450 1451 1452 1453 1455 1457 1459 1464 1468 1473 1478 1487 1492 1494 1500 1497 1497 1495 1497 1497 1496 1487 1487 1485 1485 1486 1485 1485 1486 1486 1487
1381 1386 1392 1399 1406 1412 1418 1424 1427 1431 1432 1439 1449 1451 1454 1453 1455 1456 1457 1460 1463 1468 1472 1478 1485 1486 1492 1498 1499 1496 1489 1488 1492 1490 1485 1485 1484 1484 1483 1483 1483 1485 1486 1488
1385 1390 1397 1403 1408 1412 1418 1427 1430 1428 1428 1434 1451 1456 1457 1457 1457 1457 1459 1462 1464 1467 1470 1477 1481 1483 1487 1495 1497 1483 1484 1484 1484 1484 1483 1484 1483 1482 1482 1482 1483 1485 1488 1491
1391 1396 1401 1406 1410 1414 1418 1421 1425 1427 1429 1432 1450 1455 1457 1458 1459 1460 1462 1464 1465 1469 1473 1477 1481 1484 1486 1491 1490 1486 1484 1483 1482 1482 1482 1482 1482 1482 1482 1484 1486 1487 1489 1493
1397 1402 1405 1410 1414 1416 1420 1421 1425 1428 1430 1433 1448 1458 1458 1458 1459 1461 1463 1465 1467 1471 1475 1479 1482 1485 1487 1488 1486 1485 1484 1483 1482 1482 1481 1482 1482 1484 1485 1487 1489 1490 1494 1496
1401 1404 1410 1412 1413 1417 1422 1425 1427 1429 1432 1435 1443 1453 1460 1460 1461 1464 1466 1466 1473 1476 1477 1480 1483 1486 1485 1486 1485 1483 1483 1483 1483 1483 1483 1484 1484 1487 1490 1491 1493 1495 1497 1498
1404 1409 1409 1412 1416 1419 1423 1427 1429 1431 1434 1438 1448 1454 1459 1462 1463 1467 1469 1470 1476 1478 1481 1480 1481 1483 1486 1485 1484 1482 1480 1480 1482 1482 1486 1487 1488 1491 1493 1495 1496 1497 1497 1497
1405 1406 1411 1417 1419 1422 1425 1431 1436 1441 1445 1448 1453 1455 1458 1462 1464 1467 1471 1474 1477 1478 1482 1481 1482 1482 1486 1486 1484 1483 1482 1482 1483 1483 1486 1489 1492 1494 1495 1496 1496 1497 1497 1497
1407 1409 1415 1419 1421 1425 1432 1445 1447 1447 1452 1454 1455 1457 1459 1462 1463 1466 1473 1477 1478 1477 1482 1480 1480 1484 1485 1486 1486 1487 1486 1486 1487 1489 1491 1492 1494 1495 1496 1496 1496 1496 1496 1495
1413 1415 1418 1422 1431 1438 1444 1448 1448 1450 1450 1452 1454 1458 1460 1463 1465 1469 1472 1473 1476 1479 1479 1476 1479 1484 1485 1486 1487 1489 1490 1492 1492 1493 1494 1495 1495 1496 1496 1496 1495 1495 1494 1493
1418 1423 1432 1435 1439 1440 1441 1444 1445 1449 1450 1451 1453 1457 1461 1464 1466 1469 1469 1476 1476 1475 1476 1474 1481 1483 1485 1488 1490 1491 1493 1494 1495 1495 1496 1496 1496 1496 1496 1495 1495 1494 1492 1491
1419 1425 1435 1439 1442 1442 1444 1445 1447 1450 1452 1453 1455 1459 1462 1465 1468 1470 1473 1475 1475 1475 1476 1478 1479 1483 1487 1490 1492 1494 1495 1496 1497 1497 1497 1497 1497 1496 1496 1495 1493 1491 1489 1487
1427 1433 1439 1441 1442 1445 1447 1448 1449 1451 1453 1455 1457 1461 1463 1468 1469 1471 1471 1472 1474 1478 1478 1479 1482 1485 1488 1490 1493 1495 1496 1497 1497 1497 1497 1497 1496 1495 1494 1492 1490 1488 1485 1482
1434 1440 1440 1442 1444 1447 1448 1449 1451 1453 1454 1457 1459 1462 1466 1469 1471 1473 1474 1474 1476 1477 1479 1480 1483 1485 1489 1491 1493 1495 1496 1497 1497 1497 1496 1495 1494 1492 1491 1487 1485 1482 1479 1476
Wind_Speed
45 42 39 35 32 31 29 21 3 18 23 5 1 4 5 4 1 3 5 4 3 5 3 3 3 6 2 2 2 4 1 4 3 2 0 1 1 3 4 3 4 1 1 4
46 44 40 36 34 38 37 18 5 21 24 4 2 2 3 3 2 2 4 3 3 3 4 4 2 3 1 3 3 6 5 1 3 2 2 1 3 3 4 5 2 5 4 3
47 45 42 37 37 39 34 17 3 6 10 4 8 5 4 3 2 2 3 5 4 4 3 4 5 3 1 2 3 5 4 3 4 6 3 2 4 4 5 4 3 5 6 3
47 45 41 38 40 42 34 11 4 9 4 3 4 4 6 5 2 2 2 3 3 6 4 2 3 2 2 3 5 3 3 3 2 2 2 1 2 4 9 8 4 6 4 9
45 44 40 39 44 45 31 11 6 7 5 18 6 3 6 7 3 1 0 7 3 3 6 6 8 7 4 4 2 2 2 3 2 3 2 3 3 4 7 6 4 10 4 12
44 42 39 40 47 48 23 10 13 16 1 4 6 6 5 7 8 3 3 9 5 4 2 4 9 8 11 7 5 3 2 5 3 3 2 3 5 9 12 6 6 7 10 8
41 39 37 41 47 47 25 16 18 8 2 3 6 8 6 7 5 8 3 7 5 7 27 28 24 26 22 18 12 4 5 4 2 2 1 1 4 2 1 10 6 12 2 4
38 35 36 42 47 44 25 19 13 8 3 4 4 7 6 11 9 5 5 4 10 28 5 4 4 4 4 5 7 7 4 4 3 3 3 5 5 3 5 6 5 12 11 5
33 33 37 43 46 41 23 20 15 8 13 6 9 7 10 5 4 3 4 8 28 3 4 3 4 4 3 2 1 4 5 6 3 3 2 5 5 2 4 3 4 3 10 11
31 33 38 43 45 35 24 17 14 9 6 9 14 5 9 8 5 4 6 10 5 1 2 3 3 3 1 4 5 2 2 3 3 2 3 7 6 2 4 3 4 6 16 18
29 33 38 42 46 40 26 17 16 10 6 11 8 10 13 10 10 5 11 6 2 3 3 3 3 3 4 2 2 4 5 6 3 3 1 6 7 4 5 3 3 7 16 18
28 32 37 40 43 42 24 15 11 9 6 10 14 12 12 10 12 15 21 6 6 8 4 1 3 2 1 2 3 0 3 5 4 8 5 4 13 7 10 3 4 4 10 14
27 31 34 37 39 37 23 16 15 8 18 13 11 12 10 11 12 15 9 7 9 8 7 8 2 3 3 4 5 3 4 5 2 1 2 9 19 20 24 20 12 10 10 11
26 28 31 34 36 34 23 14 21 12 8 7 5 7 8 8 11 9 9 12 14 16 9 5 3 3 6 3 2 2 2 7 4 4 10 12 15 14 15 16 15 14 10 9
26 29 31 35 33 29 35 7 12 12 3 7 8 14 12 10 8 9 11 15 17 10 5 3 2 5 4 2 1 3 9 6 4 5 3 4 6 7 7 7 7 5 8 12
27 29 29 28 27 29 31 12 9 10 13 8 3 5 7 12 13 15 15 12 9 5 5 4 4 4 3 3 3 3 3 4 6 4 9 8 9 8 6 1 6 10 11 16
28 30 30 30 29 28 19 11 15 13 11 5 4 2 4 6 7 6 7 7 5 4 5 4 4 3 4 3 3 3 9 7 5 5 5 3 4 2 3 5 11 17 18 20
22 22 22 21 19 21 21 20 17 12 7 6 4 1 3 3 2 3 3 4 4 6 4 4 4 5 2 2 3 8 7 5 6 5 4 2 6 9 13 16 22 23 17 11
26 19 18 20 17 8 15 16 13 10 6 6 4 4 3 2 4 4 3 3 3 2 2 2 3 1 3 1 8 10 6 4 2 6 10 13 15 20 22 20 14 14 12 9
23 16 5 6 10 22 14 5 3 4 6 5 4 3 2 3 2 4 2 4 1 2 0 2 2 2 5 7 5 6 4 5 9 14 15 18 25 18 15 16 11 7 4 3
5 4 6 19 13 5 5 5 7 7 5 6 4 4 4 3 2 2 3 2 1 2 1 2 1 1 3 5 8 10 9 9 5 11 18 18 18 17 13 8 4 1 3 5
11 16 14 6 5 5 7 3 2 3 2 2 3 4 5 4 3 4 2 3 1 2 4 2 2 2 8 11 13 16 16 20 24 22 21 17 13 8 4 2 3 4 6 8
5 6 5 7 8 7 4 4 1 1 4 4 4 3 3 3 4 5 2 3 2 8 2 2 2 11 13 18 22 23 22 19 18 16 13 9 5 3 3 4 5 7 9 11
5 3 4 2 1 1 1 1 3 3 5 10 10 6 3 3 3 1 3 1 2 3 3 2 4 15 16 21 19 18 17 13 11 8 5 4 4 4 4 6 7 8 10 13
5 4 3 2 4 5 7 9 7 7 9 9 8 6 3 2 3 2 3 2 2 2 2 1 10 18 19 15 15 13 10 7 6 6 4 4 4 5 5 6 9 12 15 19
5 6 4 5 6 3 5 10 10 9 11 8 5 3 2 2 2 2 2 4 3 2 1 7 18 18 16 14 15 10 7 7 6 4 3 3 4 7 9 11 14 19 23 26
4 4 10 9 10 6 5 7 5 10 4 2 2 3 1 2 2 2 1 2 2 11 11 11 15 16 16 15 11 6 4 4 3 2 2 4 7 11 16 20 24 26 28 29
Wind_Direction
208 210 202 200 192 182 181 173 155 181 179 157 164 162 199 185 230 176 216 123 120 143 132 121 142 180 221 169 172 143 121 124 140 191 177 274 170 148 139 132 185 84 143 268
205 205 199 196 189 183 174 170 141 166 179 148 181 248 225 211 116 183 188 116 107 74 128 109 140 153 115 166 140 159 183 85 96 10 351 358 208 148 112 106 97 187 155 253
203 200 196 192 186 181 172 171 124 134 196 193 143 157 191 136 200 191 100 118 99 105 89 28 159 144 100 121 116 117 113 117 165 189 185 148 178 171 167 141 151 169 229 245
200 196 193 189 183 180 179 188 173 154 179 211 146 148 170 140 205 150 99 67 138 143 119 93 133 128 96 57 142 76 106 152 123 89 25 283 234 183 185 205 173 188 222 218
196 194 189 187 182 180 189 163 137 141 127 161 122 118 205 145 158 106 148 121 139 125 152 181 189 144 188 185 85 84 20 154 129 179 356 5 275 236 210 230 219 250 232 261
191 190 187 186 182 181 191 166 150 165 84 114 117 191 179 184 136 48 51 146 111 87 118 109 107 114 111 117 134 125 100 137 123 242 358 347 315 222 206 196 205 207 224 242
187 187 187 185 182 183 184 180 167 136 174 154 175 162 172 167 175 140 83 99 96 132 116 100 89 82 76 69 50 70 125 100 63 167 9 239 251 178 190 226 233 210 213 182
184 184 185 183 183 181 189 183 169 155 128 170 142 147 125 110 96 83 98 76 130 140 122 74 62 358 27 30 41 31 53 123 99 154 209 305 267 209 182 181 280 206 212 154
181 183 184 182 182 180 186 185 181 161 127 227 152 140 164 143 111 63 77 110 146 156 77 80 134 184 186 190 82 55 63 61 105 130 181 234 249 266 198 162 284 204 176 167
181 182 182 182 180 179 182 181 183 174 115 151 163 158 171 149 115 101 126 143 197 109 80 91 146 194 195 171 173 189 54 23 161 144 232 283 250 234 147 109 249 179 183 184
178 178 179 180 181 179 178 178 187 177 133 147 169 154 158 156 156 137 152 103 232 62 78 131 184 153 200 141 154 182 173 155 187 108 187 270 181 132 179 224 219 198 193 200
170 174 178 180 182 185 183 176 167 189 131 131 125 133 156 176 169 145 163 166 157 160 94 144 119 135 141 138 219 40 225 201 179 197 218 238 202 226 224 244 249 261 238 231
164 170 174 176 178 181 182 167 173 153 118 104 111 100 118 151 158 162 136 174 165 164 136 143 132 134 144 162 228 197 230 174 215 134 225 239 249 248 258 259 272 282 282 260
155 163 165 166 168 173 166 155 180 194 137 108 70 106 105 124 151 162 166 183 161 151 134 108 132 135 194 184 151 203 195 156 178 263 281 277 278 268 273 274 269 269 259 227
145 152 157 161 164 170 175 200 206 200 177 133 123 93 72 95 130 134 134 154 154 143 108 91 142 129 127 67 54 258 187 183 174 228 296 249 295 321 318 278 271 226 192 153
132 139 145 154 161 163 167 155 157 157 121 109 112 114 99 102 113 130 134 137 133 123 117 116 112 128 125 127 198 284 244 287 273 288 311 298 296 312 318 220 157 155 147 141
133 136 138 142 150 156 167 159 153 142 124 105 88 42 122 127 122 111 103 115 109 108 104 77 121 114 131 129 199 21 345 337 324 307 312 331 0 39 96 144 139 139 126 119
134 132 136 141 150 136 114 122 134 133 104 88 109 328 101 134 91 77 78 98 101 55 95 98 101 116 118 222 329 356 10 23 48 34 34 90 114 117 116 130 135 122 112 103
141 149 139 123 116 96 108 111 107 92 103 106 86 132 186 98 87 83 71 72 66 75 97 90 128 118 214 346 315 315 319 7 88 104 109 121 119 117 118 113 100 96 91 90
138 137 125 88 106 115 108 71 79 63 42 59 82 100 101 88 85 64 85 34 79 100 333 99 101 158 101 22 357 331 317 198 167 126 105 118 115 105 101 91 93 105 125 195
118 68 70 119 118 89 64 66 46 0 40 35 72 90 119 98 119 123 44 120 71 135 243 197 130 196 93 71 72 73 87 127 124 122 121 117 108 101 101 106 110 59 313 311
85 112 103 86 66 68 78 48 24 51 146 92 107 94 95 90 94 105 106 105 116 156 159 167 206 105 135 119 106 103 105 107 105 103 105 108 109 107 97 54 12 359 349 339
78 49 62 36 9 48 99 174 191 152 169 138 131 80 93 102 81 85 109 136 164 133 170 213 87 139 139 132 123 116 112 111 113 116 115 116 106 70 46 27 5 352 343 331
114 107 73 83 100 101 123 106 98 124 135 134 123 94 92 91 87 110 120 86 128 191 216 197 146 154 133 129 133 134 132 130 127 123 112 97 78 48 20 9 1 348 338 334
76 55 85 83 120 88 98 106 109 113 137 128 105 79 90 46 95 48 109 142 218 229 209 124 134 163 149 144 150 141 131 120 104 92 78 59 42 32 23 5 348 339 330 325
61 60 88 109 83 81 97 113 110 123 135 119 89 99 99 87 110 118 175 160 213 173 114 148 149 147 146 151 151 142 120 105 94 87 63 28 8 5 359 342 330 329 328 325
64 54 100 96 100 98 99 102 109 141 119 90 106 91 122 113 81 126 162 185 176 139 110 132 159 150 151 153 147 142 143 143 113 74 31 8 353 339 330 333 335 333 333 331